• In United Kingdom
  • List of Countries
  • For 7 days
  • Water Temperature
  • Satellite Maps
  • Weather Map
  • Weather Widgets
  • user-avatar
    Login

    Hourly Weather Elbasan

    Today, 20 October, Friday

    Time Temperature Precipitation Wind Pressure Humidity
    00:00 +16°C° 0 mm 1 mps 737 mmHg 77%
    01:00 +16°C° 0 mm 1 mps 737 mmHg 77%
    02:00 +16°C° 0 mm 1 mps 737 mmHg 77%
    03:00 +15°C° 0 mm 1 mps 737 mmHg 77%
    04:00 +15°C° 0 mm 1 mps 737 mmHg 77%
    05:00 +16°C° 0 mm 1 mps 737 mmHg 75%
    06:00 +16°C° 0 mm 1 mps 737 mmHg 73%
    07:00 +18°C° 0 mm 1 mps 738 mmHg 70%
    08:00 +20°C° 0 mm 1 mps 738 mmHg 63%
    09:00 +22°C° 0 mm 1 mps 738 mmHg 56%
    10:00 +24°C° 0 mm 1 mps 738 mmHg 49%
    11:00 +24°C° 0 mm 1 mps 738 mmHg 46%
    12:00 +25°C° 0 mm 2 mps 738 mmHg 44%
    13:00 +25°C° 0 mm 2 mps 738 mmHg 41%
    14:00 +24°C° 0 mm 2 mps 737 mmHg 46%
    15:00 +24°C° 0 mm 2 mps 737 mmHg 50%
    16:00 +23°C° 0 mm 2 mps 737 mmHg 55%
    17:00 +20°C° 0 mm 2 mps 737 mmHg 63%
    18:00 +19°C° 0 mm 1 mps 738 mmHg 72%
    19:00 +18°C° 0 mm 1 mps 738 mmHg 80%
    20:00 +16°C° 0 mm 1 mps 738 mmHg 81%
    21:00 +16°C° 0 mm 1 mps 738 mmHg 81%
    22:00 +16°C° 0 mm 1 mps 738 mmHg 82%
    23:00 +15°C° 0 mm 1 mps 738 mmHg 82%

    Tomorrow, 21 October, Saturday

    Time Temperature Precipitation Wind Pressure Humidity
    00:00 +15°C° 0 mm 1 mps 738 mmHg 82%
    01:00 +15°C° 0 mm 1 mps 738 mmHg 82%
    02:00 +15°C° 0 mm 1 mps 738 mmHg 81%
    03:00 +14°C° 0 mm 1 mps 738 mmHg 80%
    04:00 +14°C° 0 mm 1 mps 738 mmHg 79%
    05:00 +15°C° 0 mm 1 mps 738 mmHg 76%
    06:00 +15°C° 0 mm 1 mps 738 mmHg 73%
    07:00 +16°C° 0 mm 1 mps 738 mmHg 70%
    08:00 +19°C° 0 mm 1 mps 738 mmHg 61%
    09:00 +21°C° 0 mm 1 mps 738 mmHg 52%
    10:00 +23°C° 0 mm 1 mps 738 mmHg 42%
    11:00 +24°C° 0 mm 2 mps 738 mmHg 41%
    12:00 +25°C° 0 mm 2 mps 738 mmHg 39%
    13:00 +25°C° 0 mm 3 mps 737 mmHg 37%
    14:00 +24°C° 0 mm 3 mps 737 mmHg 42%
    15:00 +22°C° 0 mm 3 mps 737 mmHg 47%
    16:00 +21°C° 0 mm 3 mps 736 mmHg 51%
    17:00 +20°C° 0 mm 2 mps 737 mmHg 59%
    18:00 +18°C° 0 mm 2 mps 737 mmHg 67%
    19:00 +16°C° 0 mm 1 mps 737 mmHg 75%
    20:00 +16°C° 0 mm 1 mps 737 mmHg 75%
    21:00 +15°C° 0 mm 1 mps 737 mmHg 74%
    22:00 +15°C° 0 mm 1 mps 737 mmHg 74%
    23:00 +15°C° 0 mm 1 mps 737 mmHg 74%

    Day after tomorrow, 22 October, Sunday

    Time Temperature Precipitation Wind Pressure Humidity
    00:00 +15°C° 0 mm 1 mps 737 mmHg 73%
    01:00 +14°C° 0 mm 1 mps 737 mmHg 72%
    02:00 +14°C° 0 mm 1 mps 737 mmHg 72%
    03:00 +14°C° 0 mm 1 mps 736 mmHg 71%
    04:00 +14°C° 0 mm 1 mps 736 mmHg 70%
    05:00 +14°C° 0 mm 1 mps 736 mmHg 67%
    06:00 +15°C° 0 mm 1 mps 736 mmHg 63%
    07:00 +15°C° 0 mm 1 mps 736 mmHg 60%
    08:00 +18°C° 0 mm 1 mps 736 mmHg 51%
    09:00 +21°C° 0 mm 1 mps 736 mmHg 43%
    10:00 +23°C° 0 mm 1 mps 736 mmHg 34%
    11:00 +23°C° 0 mm 2 mps 736 mmHg 35%
    12:00 +24°C° 0 mm 2 mps 735 mmHg 36%
    13:00 +25°C° 0 mm 2 mps 735 mmHg 36%
    14:00 +24°C° 0 mm 2 mps 734 mmHg 42%
    15:00 +23°C° 0 mm 2 mps 734 mmHg 48%
    16:00 +21°C° 0 mm 2 mps 734 mmHg 54%
    17:00 +21°C° 0 mm 1 mps 734 mmHg 61%
    18:00 +19°C° 0 mm 1 mps 734 mmHg 68%
    19:00 +16°C° 0 mm 1 mps 734 mmHg 75%
    20:00 +16°C° 0 mm 1 mps 733 mmHg 74%
    21:00 +16°C° 0 mm 1 mps 733 mmHg 73%
    22:00 +16°C° 0 mm 1 mps 733 mmHg 72%
    23:00 +16°C° 0 mm 2 mps 733 mmHg 70%

    23 October, Monday

    Time Temperature Precipitation Wind Pressure Humidity
    00:00 +16°C° 0 mm 2 mps 732 mmHg 68%
    01:00 +16°C° 0 mm 2 mps 732 mmHg 66%
    02:00 +16°C° 0.1 mm 2 mps 731 mmHg 66%
    03:00 +16°C° 0.1 mm 2 mps 731 mmHg 65%
    04:00 +15°C° 0.1 mm 2 mps 730 mmHg 65%
    05:00 +14°C° 0.5 mm 3 mps 730 mmHg 68%
    06:00 +16°C° 0.5 mm 3 mps 730 mmHg 70%
    07:00 +16°C° 0.5 mm 3 mps 729 mmHg 73%
    08:00 +16°C° 0.8 mm 3 mps 729 mmHg 72%
    09:00 +17°C° 0.8 mm 3 mps 729 mmHg 71%
    10:00 +17°C° 0.8 mm 3 mps 729 mmHg 71%
    11:00 +18°C° 0.3 mm 3 mps 728 mmHg 70%
    12:00 +18°C° 0.3 mm 3 mps 728 mmHg 70%
    13:00 +18°C° 0.3 mm 2 mps 727 mmHg 70%
    14:00 +18°C° 0.5 mm 2 mps 727 mmHg 70%
    15:00 +17°C° 0.5 mm 2 mps 727 mmHg 70%
    16:00 +17°C° 0.5 mm 2 mps 727 mmHg 71%
    17:00 +16°C° 0.6 mm 1 mps 727 mmHg 75%
    18:00 +15°C° 0.6 mm 1 mps 727 mmHg 80%
    19:00 +14°C° 0.6 mm 1 mps 727 mmHg 85%
    20:00 +14°C° 0.2 mm 1 mps 726 mmHg 84%
    21:00 +14°C° 0.2 mm 1 mps 726 mmHg 83%
    22:00 +13°C° 0.2 mm 1 mps 726 mmHg 83%
    23:00 +13°C° 0.1 mm 1 mps 726 mmHg 83%

    24 October, Tuesday

    Time Temperature Precipitation Wind Pressure Humidity
    00:00 +13°C° 0.1 mm 1 mps 726 mmHg 83%
    01:00 +13°C° 0.1 mm 1 mps 726 mmHg 83%
    02:00 +13°C° 0.3 mm 2 mps 726 mmHg 83%
    03:00 +13°C° 0.3 mm 2 mps 726 mmHg 83%
    04:00 +12°C° 0.3 mm 3 mps 726 mmHg 83%
    05:00 +12°C° 0.2 mm 3 mps 726 mmHg 82%
    06:00 +12°C° 0.2 mm 3 mps 726 mmHg 81%
    07:00 +12°C° 0.2 mm 3 mps 726 mmHg 80%
    08:00 +13°C° 0.1 mm 3 mps 726 mmHg 74%
    09:00 +14°C° 0.1 mm 3 mps 726 mmHg 68%
    10:00 +16°C° 0.1 mm 3 mps 726 mmHg 62%
    11:00 +16°C° 0.9 mm 3 mps 726 mmHg 64%
    12:00 +14°C° 0.9 mm 3 mps 726 mmHg 67%
    13:00 +14°C° 0.9 mm 3 mps 726 mmHg 70%
    14:00 +14°C° 0.4 mm 3 mps 726 mmHg 71%
    15:00 +14°C° 0.4 mm 3 mps 726 mmHg 73%
    16:00 +13°C° 0.4 mm 3 mps 726 mmHg 75%
    17:00 +13°C° 0.2 mm 3 mps 727 mmHg 76%
    18:00 +13°C° 0.2 mm 3 mps 727 mmHg 77%
    19:00 +13°C° 0.2 mm 3 mps 728 mmHg 79%
    20:00 +13°C° 0.1 mm 3 mps 728 mmHg 79%
    21:00 +13°C° 0.1 mm 3 mps 728 mmHg 80%
    22:00 +13°C° 0.1 mm 3 mps 729 mmHg 80%
    23:00 +12°C° 0.1 mm 3 mps 729 mmHg 80%

    25 October, Wednesday

    Time Temperature Precipitation Wind Pressure Humidity
    00:00 +12°C° 0.1 mm 4 mps 729 mmHg 80%
    01:00 +12°C° 0.1 mm 4 mps 730 mmHg 81%
    02:00 +12°C° 0 mm 4 mps 730 mmHg 81%
    03:00 +12°C° 0 mm 4 mps 730 mmHg 81%
    04:00 +11°C° 0 mm 4 mps 730 mmHg 81%
    05:00 +12°C° 0 mm 4 mps 730 mmHg 80%
    06:00 +12°C° 0 mm 4 mps 730 mmHg 78%
    07:00 +12°C° 0 mm 4 mps 731 mmHg 76%
    08:00 +13°C° 0.2 mm 4 mps 731 mmHg 72%
    09:00 +14°C° 0.2 mm 4 mps 731 mmHg 68%
    10:00 +14°C° 0.2 mm 4 mps 732 mmHg 64%
    11:00 +15°C° 0 mm 4 mps 732 mmHg 61%
    12:00 +15°C° 0 mm 5 mps 732 mmHg 59%
    13:00 +16°C° 0 mm 5 mps 732 mmHg 56%
    14:00 +15°C° 0 mm 5 mps 733 mmHg 58%
    15:00 +14°C° 0 mm 5 mps 733 mmHg 60%
    16:00 +13°C° 0 mm 5 mps 733 mmHg 62%
    17:00 +13°C° 0 mm 5 mps 734 mmHg 64%
    18:00 +12°C° 0 mm 5 mps 735 mmHg 67%
    19:00 +11°C° 0 mm 4 mps 735 mmHg 69%
    20:00 +11°C° 0 mm 4 mps 736 mmHg 70%
    21:00 +10°C° 0 mm 4 mps 736 mmHg 70%
    22:00 +10°C° 0 mm 4 mps 737 mmHg 71%
    23:00 +10°C° 0 mm 4 mps 737 mmHg 71%
    Show more